Location: Margaret Roding
(51.7833°N, 0.3167°E)
Time: 20:00:59
(UTC+00:00)

Daily predictions for brighter satellites

Satellite Brightness Start Highest point End
(mag) Time Altitude Azimuth Time Altitude Azimuth Time Altitude Azimuth
Cosmos 2084 Rocket 3.4 16:35:06 10° SW 16:39:16 72° SE 16:43:28 10° NE
SMAP 3.3 16:38:31 10° SE 16:42:59 47° ENE 16:47:28 10° N
Cosmos 540 Rocket 3.7 16:38:20 10° NNW 16:43:19 46° ENE 16:48:14 10° SE
Cosmos 2297 Rocket 4.3 16:45:11 10° NNW 16:46:40 11° N 16:48:08 10° N
SWARM A 4.2 16:44:50 10° N 16:48:11 86° E 16:51:30 10° S
Cosmos 1869 4.3 16:45:29 10° SE 16:48:13 22° E 16:50:58 10° NE
YAOGAN 1 4.1 16:47:21 10° E 16:49:50 15° ENE 16:52:21 10° NNE
IGS 5A 3.3 16:46:04 10° SSE 16:50:01 75° ENE 16:54:00 10° N
Cosmos 1763 Rocket 3.5 16:46:38 10° NNW 16:51:50 61° ENE 16:56:55 10° SE
SL-16 R/B 2.6 16:46:07 10° NNE 16:52:25 77° ESE 16:58:40 10° SSW
SAR-Lupe-5 4.4 16:51:52 10° NNE 16:54:28 52° ESE 16:57:03 10° S
Landsat 7 4.0 16:50:43 10° SE 16:55:08 45° ENE 16:59:35 10° N
Cosmos 1340 Rocket 4.4 16:52:44 10° SW 16:56:16 34° WNW 16:59:47 10° N
Timation 1 Rocket 4.3 16:51:25 10° NNW 16:57:24 69° NE 17:03:21 10° SE
RESURS DK-1 2.2 16:53:31 10° NNW 16:57:32 67° NE 17:01:31 10° SE
Cosmos 1140 Rocket 3.5 16:54:41 10° SSW 16:59:48 68° ESE 17:04:56 10° NNE
CZ-4C R/B 2.9 16:56:08 10° W 17:00:39 42° NNW 17:06:26 10° NE
Aureole 3 Rocket 3.8 16:59:08 10° SE 17:01:18 18° E 17:03:37 10° NE
UNK 3.9 17:00:49 10° NNE 17:05:22 55° E 17:09:53 10° S
Meteor 1-28 Rocket 2.9 17:02:10 10° NNE 17:05:34 89° SE 17:08:56 10° SSW
Meteor 2-12 Rocket 4.4 17:02:18 10° N 17:08:22 62° ENE 17:14:22 10° SSE
Cosmos 1400 Rocket 4.3 17:08:38 10° ESE 17:10:45 15° E 17:11:08 14° E
Cosmos 1536 Rocket 4.4 17:07:08 10° N 17:10:58 28° ENE 17:14:46 10° SE
SJ-12 3.7 17:07:43 10° SSE 17:11:26 57° ENE 17:15:11 10° N
Okean 2 Rocket 4.4 17:15:03 10° SE 17:18:10 19° E 17:20:03 15° NE
Cosmos 1269 Rocket 4.2 17:14:10 10° SSW 17:19:26 79° WNW 17:24:45 10° NNE
CORIOLIS 4.3 17:15:46 10° SSE 17:21:07 80° WSW 17:26:31 10° NNW
IRS-1C 4.1 17:17:16 10° SSE 17:22:36 86° ENE 17:27:58 10° NNW
ATLAS CENTAUR R/B 3.0 17:22:17 10° WNW 17:24:54 19° NNW 17:27:30 10° NNE
SL-12 R/B(2) 4.5 17:18:40 10° SSW 17:26:30 61° ESE 17:35:47 11° NE
COSMO-SKYMED 1 3.8 17:26:49 19° E 17:27:10 19° E 17:30:09 10° SE
Resurs 01 Rocket 3.2 17:30:11 16° NE 17:30:11 16° NE 17:32:23 10° NNE
Thor Agena Rocket 4.4 17:24:44 10° S 17:29:53 54° WSW 17:35:04 10° NNW
Cosmos 1943 Rocket 2.3 17:24:47 10° S 17:30:15 56° ESE 17:35:17 12° NE
Cosmos 1782 Rocket 4.2 17:27:00 10° SSW 17:31:22 60° WNW 17:35:47 10° N
Timation 2 Rocket 4.2 17:24:49 10° SSW 17:31:35 64° ESE 17:38:20 10° NE
Cosmos 841 Rocket 3.9 17:27:31 10° NNW 17:32:30 41° NE 17:37:28 10° SE
Cosmos 2058 2.8 17:29:13 10° N 17:33:08 54° ENE 17:37:02 10° SSE
Cosmos 2233 Rocket 4.3 17:27:01 10° SSW 17:33:18 72° WNW 17:39:40 10° N
Cosmos 1300 Rocket 4.4 17:29:34 10° SSW 17:33:51 51° WNW 17:38:07 10° N
Cosmos 2251 Rocket 3.9 17:29:28 10° S 17:34:24 42° ESE 17:38:36 14° NE
Cosmos 2227 Rocket 4.4 17:34:02 10° NNW 17:35:19 11° N 17:36:37 10° N
BREEZE-M DEB (TANK) 3.0 17:34:39 10° SW 17:37:04 40° SSE 17:39:49 20° E
Cosmos 2082 Rocket 2.1 17:32:05 10° NNW 17:37:44 79° ENE 17:43:21 10° SE
ATLAS 2AS CENTAUR R/B 3.2 17:31:40 10° NW 17:38:06 41° NNE 17:42:14 21° E
Cosmos 1346 Rocket 4.0 17:36:32 10° N 17:38:39 21° NE 17:38:39 21° NE
Cosmos 2061 Rocket 4.3 17:34:45 10° SSW 17:41:01 71° WNW 17:47:16 10° N
Cosmos 2278 Rocket 2.2 17:38:07 10° SSW 17:43:43 66° ESE 17:48:32 14° NE
IRAS Rocket 4.3 17:38:51 10° SE 17:44:14 55° ENE 17:49:37 10° N
Cosmos 1602 2.9 17:41:23 10° N 17:44:27 75° E 17:47:30 10° SSE
MOS 1 Rocket 3.0 17:41:57 10° SSE 17:46:17 80° ENE 17:50:52 10° NNW
Cosmos 1975 Rocket 4.3 17:42:48 10° NNW 17:46:56 43° W 17:51:04 10° SSW
Cosmos 468 Rocket 3.9 17:41:43 10° NNW 17:46:58 90° W 17:52:08 10° SSE
AQUARIUS 4.3 17:45:11 10° S 17:49:35 74° WSW 17:54:01 10° NNW
Cosmos 1464 Rocket 4.1 17:44:34 10° SSE 17:50:39 54° E 17:56:41 10° NNE
ARIANE 5 R/B 3.2 17:46:27 10° S 17:51:20 56° WSW 17:56:17 10° NNW
CZ-2D R/B 3.4 17:47:58 10° SSE 17:52:04 64° ENE 17:56:16 10° N
Cosmos 1862 2.9 17:51:56 10° N 17:55:35 68° ENE 17:59:11 10° SSE
USA 215 4.1 17:49:37 10° SSE 17:55:55 49° SW 18:02:15 10° WNW
PSLV R/B 3.4 17:53:58 10° SE 17:57:53 52° ENE 18:01:48 10° N
ARIANE 6 FM1 Upper Stage 4.4 17:55:55 10° NW 17:58:49 19° N 17:59:56 17° NNE
Geosat FO 4.3 17:57:42 15° SSE 17:59:57 68° WSW 18:02:49 10° NW
Cosmos 2151 Rocket 3.6 17:56:44 10° S 18:01:08 59° E 18:05:04 13° NNE
Cosmos 2263 Rocket 4.5 18:00:04 10° NNW 18:01:21 11° N 18:02:37 10° N
Cosmos 1190 Rocket 4.0 17:56:58 10° S 18:02:09 59° ESE 18:05:26 22° NE
ISS -3.7 18:00:09 10° WSW 18:03:27 60° SSE 18:03:52 54° SE
Cosmos 2034 Rocket 4.2 17:58:45 10° SSE 18:04:38 47° E 18:10:36 10° NNE
Cosmos 1812 2.2 18:02:26 10° SSW 18:05:19 67° WNW 18:06:21 35° N
Cosmos 676 Rocket 4.4 18:00:25 10° S 18:05:19 40° ESE 18:06:43 34° ENE
SKYMED 2 3.5 18:03:51 18° NNE 18:06:59 62° ESE 18:11:17 10° S
Okean 1 Rocket 3.3 18:03:39 10° SSE 18:07:50 45° E 18:08:25 42° ENE
Cosmos 1656 Rocket 4.4 18:03:11 10° SSE 18:07:59 31° ESE 18:07:59 31° ESE
Cosmos 220 Rocket 4.1 18:07:18 10° NNW 18:11:16 47° ENE 18:11:16 47° ENE
Cosmos 407 Rocket 3.9 18:07:26 10° SW 18:12:34 63° WNW 18:17:08 13° NNE
COSMOS 2406 3.1 18:07:41 10° NNW 18:13:25 82° ENE 18:19:02 10° SSE
Sich 1 Rocket 3.7 18:09:10 10° S 18:13:35 53° E 18:14:56 38° NE
USA 281 3.6 18:11:29 31° E 18:13:50 41° NE 18:19:55 10° NNW
Cosmos 1954 Rocket 4.0 18:09:23 10° S 18:14:33 61° ESE 18:16:53 32° NE
Cosmos 1092 Rocket 4.1 18:09:23 10° N 18:15:29 50° ENE 18:21:28 10° SSE
SL-19 R/B 4.0 18:14:13 10° SSE 18:19:25 86° ENE 18:24:43 10° NNW
Cosmos 2026 Rocket 3.9 18:14:31 10° N 18:20:33 60° ENE 18:26:36 10° SSE
SJ 16-02 1.1 18:19:28 10° SSW 18:23:45 74° ESE 18:24:29 58° NE
Cosmos 1072 Rocket 4.4 18:18:13 10° S 18:24:21 86° W 18:30:31 10° N
Cosmos 44 Rocket 3.3 18:19:37 10° SW 18:24:26 80° NW 18:26:14 40° NE
YAOGAN 1 2.5 18:20:53 10° SSE 18:25:08 83° WSW 18:29:26 10° NNW
SPOT 1/Viking Rocket 3.9 18:21:47 10° S 18:26:56 65° WSW 18:32:08 10° NNW
Cosmos 2344 3.8 18:23:30 10° NW 18:31:15 83° NE 18:38:34 21° SE
Cosmos 2297 Rocket 4.1 18:30:25 10° N 18:33:09 14° NNE 18:33:09 14° NNE
SL-16 R/B 4.4 18:30:20 10° N 18:35:27 27° NW 18:40:31 10° WSW
Meteor 2-3 Rocket 3.6 18:30:45 10° NNW 18:36:31 84° E 18:42:09 10° SSE
Spot 4 Rocket 4.5 18:32:38 10° S 18:37:40 62° WSW 18:42:45 10° NNW
Resurs 1-3 3.9 18:35:25 10° S 18:39:41 64° WSW 18:43:58 10° NNW
Nadezhda 4 Rocket 4.5 18:36:41 10° NNW 18:42:52 61° W 18:48:59 10° S
Cosmos 1400 Rocket 3.2 18:42:02 10° SSW 18:45:46 57° WNW 18:45:47 57° WNW
Cosmos 304 Rocket 3.6 18:43:50 10° SSW 18:48:35 87° WNW 18:48:47 82° N
CZ-4C R/B 3.7 18:45:43 10° WNW 18:50:25 28° N 18:51:49 26° NNE
Cosmos 371 Rocket 3.2 18:45:37 10° SSW 18:50:25 88° WNW 18:50:35 84° N
Cosmos 1627 Rocket 4.4 18:47:10 10° N 18:53:20 88° WSW 18:59:31 10° S
Okean 2 Rocket 3.7 18:51:25 10° SSW 18:55:43 54° WNW 18:57:21 34° NNW
COSMO-SKYMED 1 3.2 19:03:11 51° W 19:03:11 51° W 19:06:49 10° SSW
Resurs 01 Rocket 3.1 19:07:36 30° NNW 19:07:36 30° NNW 19:09:52 10° NNW
Geosat 4.3 19:05:27 53° SSW 19:06:22 63° WSW 19:11:21 10° NW
BREEZE-M DEB (TANK) 3.8 19:08:25 10° WSW 19:11:47 69° S 19:11:47 69° S
Cosmos 1943 Rocket 3.5 19:09:09 10° WSW 19:14:15 34° NW 19:16:48 23° N
Cosmos 2227 Rocket 4.4 19:19:01 10° N 19:20:29 13° N 19:20:29 13° N
Cosmos 2278 Rocket 3.7 19:23:14 10° WSW 19:28:14 31° NW 19:30:23 24° N
ATLAS 2AS CENTAUR R/B 2.6 19:22:47 10° NW 19:29:34 80° SW 19:29:41 80° SW
Cosmos 1634 Rocket 4.4 19:30:02 10° SSW 19:42:27 10° N 19:42:33 10° N
Cosmos 2369 Rocket 4.3 19:31:10 10° SSW 19:31:59 15° SSW 19:31:59 15° SSW
USA 281 3.6 19:58:22 58° WSW 19:58:22 58° WSW 20:04:40 10° NNW
SJ 16-02 4.1 19:59:21 10° W 20:01:03 16° WNW 20:01:03 16° WNW
CZ-4C R/B 4.4 20:34:31 10° NW 20:36:46 23° NNW 20:36:46 23° NNW
